Location: Ash Swamp
(41.5170°N, 74.6157°W)
Time: 02:44:48
(UTC+00:00)

Meteor 2-12 Rocket - Pass Details

Date: 14 July 2020
Orbit: 936 x 957 km, 82.5° (Epoch: 14 August)

Event Time Altitude Azimuth Distance (km) Brightness Sun altitude
Exits shadow 03:33:04 50° 168° (SSE) 1,199 4.5 -23.4°
Maximum altitude 03:34:45 77° 95° (E) 981 4.4 -23.5°
Drops below altitude 10° 03:40:55 10° 11° (N) 2,694 7.6 -24.0°
Sets 03:43:25 0° 10° (N) 3,645 8.4 -24.1°
